Simultaneous Nadir Overpasses (SNOs) Predictions

Prediction of SNOs between METOP-B and TERRA Satellite Orbit:

Table of predicted SNOs for the next 14.0 days since TLE Epoch: 6/30/2017
Index Date (METOP-B) Time (METOP-B) Lat,Lon (METOP-B) SZA (METOP-B ) Date (TERRA) Time (TERRA) Lat,Lon (TERRA) SZA (TERRA ) Distance(km) Time Diff (sec)
1 07/02/2017 07:54:27 81.34, 109.30 61.21 07/02/2017 07:55:01 81.33, 109.12 61.20 3.12 34
2 07/02/2017 08:45:07 -81.34, -83.20 118.77 07/02/2017 08:44:28 -81.33, -83.29 118.81 1.84 39
3 07/05/2017 03:28:48 81.34, 175.56 61.41 07/05/2017 03:29:17 81.34, 175.64 61.44 1.36 29
4 07/05/2017 04:19:28 -81.34, -16.91 118.56 07/05/2017 04:18:44 -81.34, -16.74 118.57 2.84 44
5 07/07/2017 23:03:07 81.34,-117.80 61.72 07/07/2017 23:03:33 81.34,-117.96 61.71 2.81 26
6 07/07/2017 23:53:47 -81.34, 49.76 118.25 07/07/2017 23:53:00 -81.34, 49.68 118.29 1.38 47
7 07/10/2017 18:37:28 81.34, -51.56 62.03 07/10/2017 18:37:51 81.33, -51.69 62.02 2.42 23
8 07/10/2017 19:28:07 -81.34, 116.42 117.89 07/10/2017 19:27:17 -81.35, 116.35 117.92 1.24 50
9 07/13/2017 14:11:49 81.33, 14.67 62.39 07/13/2017 14:12:09 81.33, 14.84 62.41 2.78 20




NCC Satellite Simultaneous Nadir Overpasses (SNOs) Prediction Service
